EW9154 Weather Reports


time (UTC)temp
C
wind
direction
speed
KPH
gust
KPH
rain 1hr
cm
rain 24hr
cm
rain mn
cm
humidity
%
barometer
mb
20260905010547 26 44 0.0 0.0 0.00 0.00 0.00 72 1027.2
20260905010020 27 44 0.0 0.0 0.00 0.00 0.00 72 1027.2
20260905005518 27 44 0.0 0.0 0.00 0.00 0.00 71 1027.0
20260905005000 27 44 0.0 0.0 0.00 0.00 0.00 71 1027.0
20260905004734 27 43 0.0 0.0 0.00 0.00 0.00 71 1026.9
20260905003937 27 28 0.0 0.0 0.00 0.00 0.00 71 1027.0
20260905003412 27 34 0.0 0.0 0.00 0.00 0.00 71 1027.0
20260905002846 28 34 0.0 0.0 0.00 0.00 0.00 71 1026.9
20260905002319 28 34 0.0 0.0 0.00 0.00 0.00 71 1027.0
20260905001816 28 34 0.0 0.0 0.00 0.00 0.00 71 1026.9
20260905001259 28 34 0.0 0.0 0.00 0.00 0.00 70 1026.8
20260905000734 28 40 0.0 0.0 0.00 0.00 0.00 70 1026.8
20260905000208 28 40 0.0 0.0 0.00 0.00 0.00 69 1026.8
20260904235639 28 40 0.0 0.0 0.00 0.00 0.00 69 1026.8
20260904235408 28 42 0.0 0.0 0.00 0.00 0.00 68 1026.8
20260904234640 28 42 0.0 0.0 0.00 0.00 0.00 67 1026.8
20260904234104 28 51 0.0 0.0 0.00 0.00 0.00 67 1026.8
20260904233535 29 52 0.0 0.0 0.00 0.00 0.00 66 1026.7
20260904233036 29 35 0.0 0.0 0.00 0.00 0.00 66 1026.7
20260904232507 29 35 0.0 0.0 0.00 0.00 0.00 65 1026.7
20260904231944 29 36 0.0 0.0 0.00 0.00 0.00 64 1026.7
20260904231435 30 31 0.0 0.0 0.00 0.00 0.00 63 1026.6
20260904230936 30 42 0.0 0.0 0.00 0.00 0.00 62 1026.6
20260904230421 30 41 0.0 0.0 0.00 0.00 0.00 62 1026.5
20260904225924 30 39 0.0 0.0 0.00 0.00 0.00 61 1026.5
20260904225419 31 5 0.0 0.0 0.00 0.00 0.00 61 1026.5
20260904224918 31 42 0.0 0.0 0.00 0.00 0.00 60 1026.5
20260904224357 31 30 0.0 0.0 0.00 0.00 0.00 60 1026.5
20260904223835 31 53 0.0 0.0 0.00 0.00 0.00 60 1026.4
20260904223337 31 53 0.0 0.0 0.00 0.00 0.00 59 1026.4
20260904222814 32 22 0.0 0.0 0.00 0.00 0.00 59 1026.4
20260904222544 32 42 0.0 0.0 0.00 0.00 0.00 60 1026.4
20260904221816 32 39 0.0 0.0 0.00 0.00 0.00 59 1026.4
20260904221529 32 41 0.0 0.0 0.00 0.00 0.00 61 1026.3
20260904220720 31 51 0.0 0.0 0.00 0.00 0.00 61 1026.2
20260904220218 31 35 0.0 0.0 0.00 0.00 0.00 60 1026.2
20260904215656 32 49 0.0 0.0 0.00 0.00 0.00 60 1026.1
20260904215130 32 59 0.0 0.0 0.00 0.00 0.00 61 1026.0
20260904214607 31 60 0.0 0.0 0.00 0.00 0.00 61 1026.0
20260904214322 32 40 0.0 0.0 0.00 0.00 0.00 61 1025.9
20260904213550 32 27 0.0 0.0 0.00 0.00 0.00 63 1026.0
20260904213048 31 22 0.0 0.0 0.00 0.00 0.00 63 1026.0
20260904212548 31 32 0.0 0.0 0.00 0.00 0.00 62 1026.0
20260904212047 31 115 0.0 0.0 0.00 0.00 0.00 65 1026.0
20260904211818 31 47 0.0 0.0 0.00 0.00 0.00 65 1026.1
20260904211320 31 39 0.0 0.0 0.00 0.00 0.00 64 1026.1
20260904210801 31 60 0.0 1.6 0.00 0.00 0.00 64 1026.1
20260904210028 31 42 0.0 1.6 0.00 0.00 0.00 66 1026.1
20260904205528 31 38 0.0 0.0 0.00 0.00 0.00 64 1026.2
20260904205005 31 37 0.0 0.0 0.00 0.00 0.00 66 1026.2
20260904204721 30 46 0.0 0.0 0.00 0.00 0.00 66 1026.2
20260904203950 30 41 0.0 0.0 0.00 0.00 0.00 66 1026.2
20260904203716 31 42 0.0 0.0 0.00 0.00 0.00 66 1026.1
20260904202948 31 5 0.0 0.0 0.00 0.00 0.00 65 1026.2
20260904202426 31 5 0.0 0.0 0.00 0.00 0.00 66 1026.2
20260904201904 31 62 0.0 0.0 0.00 0.00 0.00 65 1026.1
20260904201338 31 35 0.0 0.0 0.00 0.00 0.00 67 1026.1
20260904200838 30 40 0.0 1.6 0.00 0.00 0.00 67 1026.1
20260904200341 30 40 0.0 0.0 0.00 0.00 0.00 66 1026.1
20260904195815 30 49 0.0 1.6 0.00 0.00 0.00 67 1026.1
20260904195528 31 44 0.0 1.6 0.00 0.00 0.00 67 1026.1
20260904194727 30 28 0.0 1.6 0.00 0.00 0.00 67 1026.2
20260904194439 31 37 0.0 3.2 0.00 0.00 0.00 67 1026.2
20260904193925 31 65 0.0 3.2 0.00 0.00 0.00 65 1026.2
20260904193157 31 66 0.0 1.6 0.00 0.00 0.00 65 1026.2
20260904192644 31 312 0.0 1.6 0.00 0.00 0.00 68 1026.2
20260904192147 31 24 0.0 0.0 0.00 0.00 0.00 69 1026.2
20260904191621 30 34 0.0 9.7 0.00 0.00 0.00 67 1026.2
20260904191053 30 30 0.0 9.7 0.00 0.00 0.00 69 1026.3
20260904190548 30 42 0.0 8.0 0.00 0.00 0.00 70 1026.3
20260904190040 30 107 0.0 8.0 0.00 0.00 0.00 69 1026.2
20260904185536 31 50 0.0 8.0 0.00 0.00 0.00 67 1026.2
20260904185306 31 69 0.0 1.6 0.00 0.00 0.00 69 1026.2
20260904184508 31 83 0.0 1.6 0.00 0.00 0.00 66 1026.2
20260904183943 31 343 0.0 0.0 0.00 0.00 0.00 67 1026.2
20260904183440 31 5 0.0 4.8 0.00 0.00 0.00 68 1026.2
20260904183158 31 44 0.0 4.8 0.00 0.00 0.00 68 1026.2
20260904182422 31 13 0.0 11.3 0.00 0.00 0.00 69 1026.2
20260904181915 31 29 0.0 11.3 0.00 0.00 0.00 67 1026.1
20260904181412 31 12 0.0 3.2 0.00 0.00 0.00 67 1026.1
20260904180910 31 68 0.0 3.2 0.00 0.00 0.00 66 1026.1
20260904180406 31 99 0.0 3.2 0.00 0.00 0.00 66 1026.1
20260904180129 31 77 0.0 1.6 0.00 0.00 0.00 67 1026.1
20260904175602 31 71 0.0 1.6 0.00 0.00 0.00 67 1026.1
20260904175058 31 15 0.0 0.0 0.00 0.03 0.00 67 1026.1
20260904174324 31 34 0.0 0.0 0.00 0.03 0.00 67 1026.0
20260904174051 31 60 0.0 0.0 0.00 0.05 0.00 68 1026.1
20260904173254 31 84 0.0 0.0 0.00 0.05 0.00 68 1025.9
20260904173014 31 42 0.0 0.0 0.00 0.05 0.00 67 1025.9
20260904172242 31 36 0.0 0.0 0.00 0.05 0.00 67 1025.9
20260904171715 31 63 0.0 0.0 0.00 0.05 0.00 68 1025.8
20260904171210 31 42 0.0 0.0 0.00 0.05 0.00 69 1025.8
20260904170709 32 33 0.0 0.0 0.00 0.05 0.00 68 1025.8
20260904170204 32 59 0.0 1.6 0.00 0.05 0.00 69 1025.7
20260904165703 32 46 0.0 1.6 0.00 0.05 0.00 68 1025.6
20260904165205 32 54 0.0 3.2 0.00 0.05 0.00 67 1025.7
20260904164636 32 30 0.0 3.2 0.00 0.05 0.00 68 1025.6
20260904164107 32 31 0.0 0.0 0.00 0.05 0.00 65 1025.6
20260904163604 32 35 0.0 0.0 0.00 0.05 0.00 68 1025.6
20260904163103 31 35 0.0 1.6 0.00 0.05 0.00 68 1025.5
20260904162604 31 42 0.0 0.0 0.00 0.05 0.00 67 1025.4
20260904162101 31 55 0.0 0.0 0.00 0.05 0.00 69 1025.4
20260904161557 31 38 0.0 0.0 0.00 0.05 0.00 69 1025.4
20260904161033 31 39 0.0 0.0 0.00 0.05 0.00 69 1025.3
20260904160506 31 232 0.0 0.0 0.00 0.05 0.00 69 1025.3
20260904160008 31 232 0.0 0.0 0.00 0.05 0.00 70 1025.2
20260904155508 31 232 0.0 0.0 0.00 0.05 0.00 71 1025.1
20260904154944 31 232 0.0 0.0 0.00 0.05 0.00 71 1025.2
20260904154416 30 232 0.0 0.0 0.00 0.05 0.00 72 1025.2
20260904153913 30 231 0.0 0.0 0.00 0.05 0.00 73 1025.2
20260904153413 30 231 0.0 0.0 0.00 0.05 0.00 73 1025.1
20260904153130 30 231 0.0 0.0 0.00 0.05 0.00 73 1025.1
20260904152357 30 231 0.0 0.0 0.00 0.05 0.00 75 1025.0
20260904151854 29 231 0.0 0.0 0.00 0.05 0.00 76 1025.0
20260904151350 28 231 0.0 0.0 0.00 0.05 0.00 77 1024.9
20260904151058 28 231 0.0 0.0 0.00 0.05 0.00 78 1024.9
20260904150543 28 231 0.0 0.0 0.00 0.05 0.00 79 1024.8
20260904145814 28 231 0.0 0.0 0.00 0.05 0.00 79 1024.8
20260904145306 27 231 0.0 0.0 0.00 0.05 0.00 80 1024.8
20260904144803 27 231 0.0 0.0 0.00 0.05 0.00 82 1024.6
20260904144234 27 231 0.0 0.0 0.00 0.05 0.00 82 1024.8
20260904143730 27 231 0.0 0.0 0.00 0.05 0.00 84 1024.8
20260904143228 26 231 0.0 0.0 0.00 0.05 0.00 85 1024.8
20260904142724 26 232 0.0 0.0 0.00 0.05 0.00 86 1024.9
20260904142227 26 232 0.0 0.0 0.00 0.05 0.00 87 1024.8
20260904141722 25 240 0.0 0.0 0.00 0.05 0.00 88 1024.8
20260904141453 25 240 0.0 0.0 0.00 0.05 0.00 88 1024.8
20260904140652 25 227 0.0 0.0 0.00 0.05 0.00 89 1024.6
20260904140150 25 227 0.0 0.0 0.00 0.05 0.00 90 1024.6
20260904135622 25 227 0.0 0.0 0.00 0.05 0.00 91 1024.5
20260904135356 24 227 0.0 0.0 0.00 0.05 0.00 91 1024.6
20260904134556 24 244 0.0 0.0 0.00 0.05 0.00 91 1024.8
20260904134055 24 219 0.0 0.0 0.00 0.05 0.00 92 1024.9
20260904133526 24 219 0.0 0.0 0.00 0.05 0.00 92 1024.8
20260904133257 24 219 0.0 0.0 0.00 0.05 0.00 92 1024.9
20260904132456 23 214 0.0 0.0 0.00 0.05 0.00 92 1024.8
20260904131949 23 221 0.0 0.0 0.00 0.05 0.00 92 1024.6
20260904131423 23 221 0.0 0.0 0.00 0.05 0.00 92 1024.5
20260904130856 23 221 0.0 0.0 0.00 0.05 0.00 93 1024.5
20260904130330 23 221 0.0 0.0 0.00 0.05 0.00 92 1024.4
20260904125805 23 223 0.0 0.0 0.00 0.05 0.00 92 1024.5
20260904125236 23 223 0.0 0.0 0.00 0.05 0.00 92 1024.3
20260904125006 23 223 0.0 0.0 0.00 0.05 0.00 92 1024.3
20260904124204 23 222 0.0 0.0 0.00 0.05 0.00 92 1024.2
20260904123651 23 222 0.0 0.0 0.00 0.05 0.00 92 1024.3
20260904123150 23 222 0.0 0.0 0.00 0.05 0.00 92 1024.1
20260904122648 23 222 0.0 0.0 0.00 0.05 0.00 91 1024.1
20260904122419 23 222 0.0 0.0 0.00 0.05 0.00 91 1024.0
20260904121921 23 222 0.0 0.0 0.00 0.05 0.00 91 1024.0
20260904121126 23 222 0.0 0.0 0.00 0.05 0.00 91 1023.9
20260904120603 23 222 0.0 0.0 0.00 0.05 0.00 91 1023.8
20260904115601 23 222 0.0 0.0 0.00 0.05 0.00 91 1023.7
20260904115100 23 222 0.0 0.0 0.00 0.05 0.00 90 1023.7
20260904114550 23 222 0.0 0.0 0.00 0.05 0.00 90 1023.6
20260904114320 23 222 0.0 0.0 0.00 0.05 0.00 90 1023.6
20260904113817 23 222 0.0 0.0 0.00 0.05 0.00 90 1023.6
20260904113048 23 222 0.0 0.0 0.00 0.05 0.00 90 1023.4
20260904112544 24 216 0.0 0.0 0.00 0.05 0.00 89 1023.5
20260904112046 24 216 0.0 0.0 0.00 0.05 0.00 89 1023.5
20260904111525 24 216 0.0 0.0 0.00 0.05 0.00 89 1023.5
20260904110955 24 216 0.0 0.0 0.00 0.05 0.00 89 1023.7
20260904110453 24 216 0.0 0.0 0.00 0.05 0.00 89 1023.6
20260904110223 24 216 0.0 0.0 0.00 0.05 0.00 89 1023.6
20260904105451 24 216 0.0 0.0 0.00 0.05 0.00 89 1023.6
20260904105225 24 215 0.0 0.0 0.00 0.05 0.00 89 1023.5
20260904104444 24 222 0.0 0.0 0.00 0.05 0.00 89 1023.5
20260904103944 24 225 0.0 0.0 0.00 0.05 0.00 89 1023.5
20260904103442 24 238 0.0 0.0 0.00 0.05 0.00 89 1023.4
20260904102922 24 205 0.0 0.0 0.00 0.05 0.00 89 1023.5
20260904102400 24 227 0.0 0.0 0.00 0.05 0.00 89 1023.5
20260904101836 24 245 0.0 0.0 0.00 0.05 0.00 90 1023.6
20260904101327 24 231 0.0 0.0 0.00 0.05 0.00 90 1023.5
20260904101051 24 234 0.0 0.0 0.00 0.05 0.00 90 1023.4
20260904100318 24 241 0.0 0.0 0.00 0.05 0.00 90 1023.4
20260904095815 24 225 0.0 0.0 0.00 0.05 0.00 91 1023.3
20260904095315 24 230 0.0 0.0 0.00 0.05 0.00 91 1023.3
20260904095025 24 224 0.0 0.0 0.00 0.05 0.00 91 1023.3
20260904094225 24 219 0.0 0.0 0.00 0.05 0.00 91 1023.4
20260904093709 24 221 0.0 0.0 0.00 0.05 0.00 91 1023.3
20260904093149 24 221 0.0 0.0 0.00 0.05 0.00 91 1023.3
20260904092650 24 221 0.0 0.0 0.00 0.05 0.00 91 1023.2
20260904092149 24 221 0.0 0.0 0.00 0.05 0.00 91 1023.2
20260904091625 24 221 0.0 0.0 0.00 0.05 0.00 91 1023.2
20260904091345 24 221 0.0 0.0 0.00 0.05 0.00 90 1023.0
20260904090615 24 221 0.0 0.0 0.00 0.05 0.00 90 1023.1
20260904090049 24 228 0.0 0.0 0.00 0.05 0.00 90 1023.1
20260904085548 24 229 0.0 0.0 0.00 0.05 0.00 90 1023.1
20260904085024 24 229 0.0 0.0 0.00 0.05 0.00 91 1023.0
20260904084503 24 229 0.0 0.0 0.00 0.05 0.00 91 1023.0
20260904083952 24 209 0.0 0.0 0.00 0.05 0.00 91 1023.0
20260904083428 24 209 0.0 0.0 0.00 0.05 0.00 90 1022.9
20260904083158 24 209 0.0 0.0 0.00 0.05 0.00 90 1022.9
20260904082425 24 209 0.0 0.0 0.00 0.05 0.00 90 1022.9
20260904081903 24 209 0.0 0.0 0.00 0.05 0.00 90 1022.9
20260904081858 24 209 0.0 0.0 0.00 0.05 0.00 90 1022.9
20260904081111 24 209 0.0 0.0 0.00 0.05 0.00 90 1022.9
20260904080339 24 209 0.0 0.0 0.00 0.05 0.00 90 1022.8
20260904075814 25 209 0.0 0.0 0.00 0.05 0.00 90 1022.8
20260904075245 25 209 0.0 0.0 0.00 0.05 0.00 90 1022.9
20260904074743 25 209 0.0 0.0 0.00 0.05 0.00 90 1022.9
20260904074231 25 209 0.0 0.0 0.00 0.05 0.00 89 1022.9
20260904074226 25 209 0.0 0.0 0.00 0.05 0.00 90 1022.9
20260904073838 25 209 0.0 0.0 0.00 0.05 0.00 89 1022.9
20260904072927 25 209 0.0 0.0 0.00 0.05 0.00 89 1022.9
20260904072153 25 209 0.0 0.0 0.00 0.05 0.00 89 1022.9
20260904071652 25 209 0.0 0.0 0.00 0.05 0.00 89 1022.9
20260904071136 25 209 0.0 0.0 0.00 0.05 0.00 89 1022.9
20260904070638 25 209 0.0 0.0 0.00 0.05 0.00 89 1022.9
20260904070109 25 209 0.0 0.0 0.00 0.05 0.00 89 1022.9
20260904065607 25 209 0.0 0.0 0.00 0.05 0.00 89 1022.9
20260904065039 25 209 0.0 0.0 0.00 0.05 0.00 89 1022.9
20260904064538 25 188 0.0 0.0 0.00 0.05 0.00 89 1022.9
20260904064248 25 185 0.0 0.0 0.00 0.05 0.00 89 1022.9
20260904063519 25 196 0.0 0.0 0.00 0.05 0.00 88 1022.9
20260904062959 25 191 0.0 0.0 0.00 0.05 0.00 88 1022.9
20260904062421 25 191 0.0 0.0 0.00 0.05 0.00 88 1022.9
20260904061919 25 194 0.0 0.0 0.00 0.05 0.00 88 1023.0
20260904061351 25 194 0.0 0.0 0.00 0.05 0.00 88 1023.0
20260904060847 25 194 0.0 0.0 0.00 0.05 0.00 88 1023.0
20260904060338 25 197 0.0 0.0 0.00 0.05 0.00 88 1022.9
20260904060104 25 191 0.0 0.0 0.00 0.05 0.00 87 1023.0
20260904055327 25 191 0.0 0.0 0.00 0.05 0.00 87 1023.0
20260904054824 25 191 0.0 0.0 0.00 0.05 0.00 87 1023.1
20260904054817 25 191 0.0 0.0 0.00 0.05 0.00 87 1023.0
20260904053814 25 191 0.0 0.0 0.00 0.05 0.00 87 1022.9
20260904053549 25 183 0.0 0.0 0.00 0.05 0.00 87 1022.9
20260904052751 25 184 0.0 0.0 0.00 0.05 0.00 86 1022.9
20260904052456 25 184 0.0 0.0 0.00 0.05 0.00 86 1022.9
20260904051708 25 187 0.0 8.0 0.00 0.05 0.00 86 1022.8
20260904051209 25 187 0.0 8.0 0.00 0.05 0.00 86 1022.9
20260904050707 25 189 0.0 1.6 0.00 0.05 0.00 86 1022.8
20260904050207 25 192 0.0 1.6 0.00 0.05 0.00 86 1022.8
20260904045910 26 182 0.0 0.0 0.00 0.05 0.05 85 1022.9
20260904045114 26 181 0.0 4.8 0.00 0.05 0.05 85 1022.8
20260904044545 26 196 0.0 4.8 0.00 0.05 0.05 85 1022.8
20260904044043 26 192 0.0 1.6 0.00 0.05 0.05 85 1022.8
20260904043515 26 188 0.0 0.0 0.00 0.05 0.05 85 1022.8
20260904043005 26 184 0.0 0.0 0.00 0.05 0.05 84 1022.8
20260904042503 26 192 0.0 6.4 0.00 0.05 0.05 84 1022.8
20260904041937 26 182 0.0 6.4 0.00 0.05 0.05 84 1022.7
20260904041409 26 191 0.0 4.8 0.00 0.05 0.05 84 1022.7
20260904040908 26 178 0.0 4.8 0.00 0.05 0.05 84 1022.8
20260904040341 26 188 0.0 4.8 0.00 0.05 0.05 83 1022.8
20260904035833 26 194 0.0 0.0 0.00 0.05 0.05 83 1022.8
20260904035332 26 190 0.0 1.6 0.00 0.05 0.05 83 1022.8
20260904034803 26 182 0.0 11.3 0.00 0.05 0.05 83 1022.8
20260904034301 26 190 0.0 3.2 0.00 0.05 0.05 82 1022.8
20260904033729 26 178 0.0 3.2 0.00 0.05 0.05 82 1022.8
20260904033231 26 184 0.0 3.2 0.00 0.05 0.05 82 1022.7
20260904032733 26 188 0.0 3.2 0.00 0.05 0.05 81 1022.8
20260904032225 26 196 0.0 4.8 0.00 0.05 0.05 81 1022.8
20260904031724 26 202 0.0 12.9 0.00 0.05 0.05 81 1022.9
20260904031155 26 190 0.0 12.9 0.00 0.05 0.05 81 1022.9
20260904030653 26 188 0.0 11.3 0.00 0.05 0.05 81 1022.9
20260904030125 26 182 0.0 11.3 0.00 0.05 0.05 81 1022.8
20260904025614 26 177 0.0 6.4 0.00 0.05 0.05 81 1022.9
20260904025048 26 180 0.0 0.0 0.00 0.05 0.05 81 1022.8
20260904024535 26 180 0.0 0.0 0.00 0.05 0.05 80 1022.8
20260904024034 26 190 0.0 0.0 0.00 0.05 0.05 80 1022.8
20260904023505 26 190 0.0 0.0 0.00 0.05 0.05 80 1022.8
20260904023004 26 187 0.0 0.0 0.00 0.05 0.05 80 1022.7
20260904022656 26 186 0.0 0.0 0.00 0.05 0.05 79 1022.7
20260904022532 26 186 0.0 0.0 0.00 0.05 0.05 79 1022.8
20260904021418 26 186 0.0 0.0 0.00 0.05 0.05 79 1022.6
20260904020855 27 186 0.0 0.0 0.00 0.05 0.05 78 1022.6
20260904020608 27 186 0.0 0.0 0.00 0.05 0.05 78 1022.6
20260904015836 27 186 0.0 0.0 0.00 0.05 0.05 78 1022.5
20260904015335 27 186 0.0 0.0 0.00 0.05 0.05 77 1022.5
20260904014833 27 186 0.0 0.0 0.00 0.05 0.05 77 1022.5
20260904014305 27 186 0.0 0.0 0.00 0.05 0.05 77 1022.5
20260904013804 27 186 0.0 0.0 0.00 0.05 0.05 76 1022.5
20260904013243 27 186 0.0 0.0 0.00 0.05 0.05 76 1022.5
20260904012742 27 186 0.0 0.0 0.00 0.05 0.05 75 1022.5
20260904012244 27 186 0.0 0.0 0.00 0.05 0.05 75 1022.4
20260904011719 27 186 0.0 0.0 0.00 0.05 0.05 74 1022.2
20260904011151 28 186 0.0 1.6 0.00 0.05 0.05 74 1022.1